Regional Weather Roundup
Issued by NWS

Home | Current Version | Previous Version | Graphics & Text | Print | Product List | Glossary Off
Versions: 1 2 3 4 5 6 7 8 9 10 11 12 13 14 15 16 17 18 19 20 21 22 23 24 25 26 27 28 29 30 31 32 33 34 35 36 37 38 39 40 41 42 43 44 45 46 47 48 49 50

000
ASUS43 KTOP 200108
RWRKS

WEATHER ROUNDUP FOR KANSAS
NATIONAL WEATHER SERVICE GOODLAND KS
800 PM CDT THU OCT 19 2017

NOTE:  "FAIR" INDICATES FEW OR NO CLOUDS BELOW 12,000 FEET WITH NO
SIGNIFICANT WEATHER AND/OR OBSTRUCTIONS TO VISIBILITY.

KSZ001>006-013>018-027>032-041>047-200200-
NORTHWEST KANSAS

CITY           SKY/WX    TMP DP  RH WIND       PRES   REMARKS
GOODLAND       CLEAR     62  46  55 S9        29.92F
HAYS           CLOUDY    65  46  50 SE9       29.97S
HILL CITY      CLEAR     70  41  34 S10       29.95R
RUSSELL        PTCLDY    70  47  43 S16G25    29.97R
$$

KSZ061>065-074>080-084>089-200200-
SOUTHWEST KANSAS

CITY           SKY/WX    TMP DP  RH WIND       PRES   REMARKS
DODGE CITY     CLOUDY    67  42  40 SE15      30.00R
ELKHART          N/A     65  49  56 SE13        N/A
GARDEN CITY    CLEAR     67  43  41 SE14      29.96R
GREAT BEND     CLOUDY    65  47  52 SE12      29.99R
LIBERAL        CLEAR     65  45  48 S14       29.98
PRATT          CLOUDY    68  44  42 S14       30.02R
$$

KSZ066>073-081>083-090>101-200200-
SOUTHEAST KANSAS

CITY           SKY/WX    TMP DP  RH WIND       PRES   REMARKS
CHANUTE        PTCLDY    63  53  70 S9        30.09R
COFFEYVILLE      N/A     63  54  72 SE6       30.09R
HUTCHINSON     CLOUDY    64  46  52 SE9       30.02R
MEDICINE LODGE   N/A     68  46  45 SE9       30.02R
NEWTON         CLOUDY    66  49  54 S14       30.04S
PARSONS        PTCLDY    65  53  65 SE5       30.10S
WICHITA INTL   MOCLDY    67  51  56 SE14      30.04R
WICHITA JABRA  CLEAR     67  50  54 S12       30.05R
WICHITA MCCONL CLEAR     65  49  56 S9        30.05R
WINFIELD       CLOUDY    63  54  72 S7        30.07R
$$

KSZ007>012-019>026-033>040-048>060-102>105-200200-
NORTHEAST KANSAS

CITY           SKY/WX    TMP DP  RH WIND       PRES   REMARKS
CONCORDIA      CLEAR     70  47  43 S18       29.98R
EMPORIA        PTCLDY    67  52  58 S12       30.05R
LAWRENCE       CLOUDY    63  53  70 SE7       30.05R
MANHATTAN      CLEAR     67  47  48 CALM      30.01R
MARYSVILLE     CLOUDY    66  50  55 SE5       30.00R
OLATHE IND     CLOUDY    62  53  72 S9        30.08R
OLATHE EXE     CLOUDY    63  54  72 S9        30.08R
SALINA         CLOUDY    65  50  58 SE9       30.00R
TOPEKA BILLARD CLOUDY    65  54  67 E6        30.04R
TOPEKA FORBES  CLEAR     67  53  61 SE9       30.04R
$$




USA.gov is the U.S. government's official web portal to all federal, state and local government web resources and services.